Carmi, IL

6:49 AM CDT on June 28, 2017 (GMT -0500)
Carmi Municipal

Weather History for KCUL - February, 2014

Change the Weather History Date:

Wednesday, February 26, 2014

  Actual Average (KEHR) Record (KEHR)
Temperature  
Mean Temperature 22 °F -  
Max Temperature 27 °F 48 °F 71 °F (1981)
Min Temperature 16 °F 30 °F 7 °F (1967)
Degree Days  
Heating Degree Days 44    
Moisture  
Dew Point 10 °F    
Average Humidity 60    
Maximum Humidity 78    
Minimum Humidity 41    
Precipitation  
Precipitation 0.00 in - - ()
Sea Level Pressure  
Sea Level Pressure 30.17 in    
Wind  
Wind Speed 13 mph (WNW)    
Max Wind Speed 20 mph    
Max Gust Speed 30 mph    
Visibility 10 miles    
Events Snow    
Averages and records for this station are not official NWS values.
T = Trace of Precipitation, MM = Missing Value Source: NWS Daily Summary

Daily Weather History Graph

Daily Weather History Graph

Search for Another Location

Airport or City:

Trip Planner

Search our weather history database for the weather conditions in past years. The results will help you decide how hot, cold, wet, or windy it might be!

Date:

Astronomy

Feb. 26, 2014 Rise Set
Actual Time 6:28 AM CST 5:42 PM CST
Civil Twilight 6:01 AM CST 6:09 PM CST
Nautical Twilight 5:31 AM CST 6:39 PM CST
Astronomical Twilight 5:00 AM CST 7:10 PM CST
Moon 4:12 AM CST (2/26) 2:58 PM CST (2/26)
Length of Visible Light 12h 07m
Length of Day
11h 14m
Waning Crescent, 10% of the Moon is Illuminated
Feb 26
Waning Crescent
Mar 1
New
Mar 8
First Quarter
Mar 16
Full
Mar 23
Last Quarter

Hourly Weather History & Observations

Time (CST) Temp. Windchill Dew Point Humidity Pressure Visibility Wind Dir Wind Speed Gust Speed Precip Events Conditions
12:15 AM 26.4 °F 14.0 °F 19.6 °F 75% 30.23 in 10.0 mi NW 16.1 mph 19.6 mph N/A   Overcast
12:35 AM 25.5 °F 11.6 °F 19.4 °F 78% 30.23 in 5.0 mi NW 19.6 mph 24.2 mph N/A Snow Light Snow
12:55 AM 25.3 °F 13.1 °F 18.7 °F 76% 30.24 in 7.0 mi NW 15.0 mph - N/A Snow Light Snow
1:15 AM 24.8 °F 12.4 °F 16.9 °F 72% 30.25 in 10.0 mi NW 15.0 mph 21.9 mph N/A   Overcast
1:35 AM 24.6 °F 11.3 °F 16.0 °F 70% 30.26 in 10.0 mi NNW 17.3 mph 23.0 mph N/A   Overcast
1:55 AM 23.5 °F 9.4 °F 13.1 °F 64% 30.26 in 10.0 mi NNW 18.4 mph 29.9 mph N/A   Overcast
2:15 AM 23.0 °F 9.2 °F 13.1 °F 66% 30.27 in 10.0 mi NNW 17.3 mph 24.2 mph N/A   Overcast
2:35 AM 22.5 °F 8.5 °F 12.2 °F 65% 30.27 in 10.0 mi NNW 17.3 mph - N/A   Mostly Cloudy
2:55 AM 21.7 °F 6.7 °F 11.5 °F 65% 30.26 in 10.0 mi NW 19.6 mph 23.0 mph N/A   Scattered Clouds
3:15 AM 21.0 °F 5.7 °F 10.0 °F 63% 30.26 in 10.0 mi NW 19.6 mph - N/A   Scattered Clouds
3:35 AM 20.3 °F 6.1 °F 9.9 °F 64% 30.27 in 10.0 mi NNW 16.1 mph 24.2 mph N/A   Scattered Clouds
3:55 AM 20.3 °F 5.2 °F 10.2 °F 65% 30.27 in 10.0 mi NNW 18.4 mph - N/A   Clear
4:15 AM 19.8 °F 5.0 °F 9.3 °F 64% 30.27 in 10.0 mi NW 17.3 mph 23.0 mph N/A   Scattered Clouds
4:35 AM 19.0 °F 4.5 °F 8.8 °F 64% 30.27 in 10.0 mi NNW 16.1 mph - N/A   Scattered Clouds
4:55 AM 18.5 °F 3.3 °F 8.8 °F 66% 30.28 in 10.0 mi NNW 17.3 mph - N/A   Clear
5:15 AM 17.8 °F 2.4 °F 7.9 °F 65% 30.29 in 10.0 mi NW 17.3 mph 20.7 mph N/A   Scattered Clouds
5:35 AM 17.1 °F 2.5 °F 6.6 °F 64% 30.30 in 10.0 mi NW 15.0 mph 21.9 mph N/A   Clear
5:55 AM 16.7 °F 3.2 °F 7.3 °F 67% 30.30 in 10.0 mi NNW 12.7 mph - N/A   Clear
6:15 AM 16.5 °F 3.6 °F 8.2 °F 70% 30.30 in 10.0 mi NNW 11.5 mph - N/A   Clear
6:35 AM 16.5 °F 3.0 °F 7.5 °F 68% 30.30 in 10.0 mi NNW 12.7 mph 19.6 mph N/A   Scattered Clouds
6:55 AM 16.3 °F 3.4 °F 7.3 °F 68% 30.30 in 10.0 mi NW 11.5 mph - N/A   Scattered Clouds
7:15 AM 16.3 °F 1.6 °F 7.0 °F 67% 30.31 in 10.0 mi NW 15.0 mph - N/A   Scattered Clouds
7:35 AM 16.3 °F 2.1 °F 7.0 °F 67% 30.31 in 10.0 mi NW 13.8 mph - N/A   Clear
7:55 AM 17.1 °F 2.0 °F 7.2 °F 65% 30.32 in 10.0 mi NNW 16.1 mph - N/A   Clear
8:15 AM 16.7 °F 2.0 °F 7.0 °F 66% 30.30 in 10.0 mi NNW 15.0 mph - N/A   Scattered Clouds
8:35 AM 16.7 °F 3.8 °F 6.1 °F 63% 30.31 in 10.0 mi NW 11.5 mph 17.3 mph N/A   Clear
8:55 AM 17.6 °F 4.3 °F 6.4 °F 62% 30.30 in 10.0 mi NNW 12.7 mph - N/A   Clear
9:15 AM 17.4 °F 5.4 °F 7.3 °F 65% 30.29 in 10.0 mi NW 10.4 mph - N/A   Scattered Clouds
9:35 AM 18.5 °F 6.8 °F 7.7 °F 63% 30.29 in 10.0 mi NW 10.4 mph 18.4 mph N/A   Scattered Clouds
9:55 AM 18.9 °F 5.9 °F 8.1 °F 63% 30.29 in 10.0 mi NNW 12.7 mph 17.3 mph N/A   Scattered Clouds
10:15 AM 19.6 °F 8.9 °F 8.6 °F 62% 30.29 in 10.0 mi NNW 9.2 mph - N/A   Scattered Clouds
10:35 AM 20.1 °F 7.5 °F 7.5 °F 58% 30.28 in 10.0 mi NNW 12.7 mph 16.1 mph N/A   Clear
10:55 AM 21.4 °F 9.1 °F 9.0 °F 59% 30.28 in 10.0 mi NNW 12.7 mph - N/A   Clear
11:15 AM 21.6 °F 9.3 °F 7.7 °F 55% 30.27 in 10.0 mi NNW 12.7 mph - N/A   Clear
11:35 AM 21.7 °F 10.2 °F 7.2 °F 54% 30.26 in 10.0 mi NNW 11.5 mph - N/A   Clear
11:55 AM 22.8 °F 12.9 °F 9.0 °F 55% 30.24 in 10.0 mi NW 9.2 mph - N/A   Clear
12:15 PM 23.0 °F 14.7 °F 8.2 °F 53% 30.23 in 10.0 mi NW 6.9 mph - N/A   Clear
12:35 PM 23.7 °F 13.3 °F 9.7 °F 55% 30.22 in 10.0 mi West 10.4 mph 17.3 mph N/A   Clear
12:55 PM 23.4 °F 16.2 °F 8.1 °F 52% 30.19 in 10.0 mi NNW 5.8 mph - N/A   Clear
1:15 PM 23.9 °F 16.8 °F 6.3 °F 47% 30.17 in 10.0 mi WNW 5.8 mph - N/A   Clear
1:35 PM 25.0 °F 16.3 °F 7.2 °F 47% 30.16 in 10.0 mi WNW 8.1 mph - N/A   Clear
1:55 PM 25.2 °F 15.7 °F 6.4 °F 45% 30.14 in 10.0 mi West 9.2 mph - N/A   Clear
2:15 PM 25.3 °F 16.0 °F 8.4 °F 49% 30.13 in 10.0 mi West 9.2 mph - N/A   Clear
2:35 PM 26.1 °F 17.6 °F 9.0 °F 49% 30.13 in 10.0 mi West 8.1 mph 16.1 mph N/A   Clear
2:55 PM 26.4 °F 18.9 °F 7.5 °F 45% 30.12 in 10.0 mi West 6.9 mph - N/A   Clear
3:15 PM 27.0 °F 16.7 °F 9.1 °F 47% 30.10 in 10.0 mi WNW 11.5 mph 19.6 mph N/A   Clear
3:35 PM 27.0 °F 17.3 °F 5.9 °F 41% 30.10 in 10.0 mi WNW 10.4 mph 16.1 mph N/A   Clear
3:55 PM 27.0 °F 16.7 °F 6.4 °F 42% 30.09 in 10.0 mi West 11.5 mph 17.3 mph N/A   Clear
4:15 PM 27.0 °F 18.0 °F 7.9 °F 45% 30.08 in 10.0 mi WNW 9.2 mph - N/A   Clear
4:35 PM 26.8 °F 16.5 °F 7.9 °F 45% 30.07 in 10.0 mi WNW 11.5 mph 17.3 mph N/A   Clear
4:55 PM 26.6 °F 16.2 °F 6.1 °F 42% 30.07 in 10.0 mi West 11.5 mph - N/A   Clear
5:15 PM 26.2 °F 17.1 °F 6.8 °F 44% 30.06 in 10.0 mi West 9.2 mph - N/A   Clear
5:35 PM 25.5 °F 16.2 °F 6.6 °F 45% 30.05 in 10.0 mi West 9.2 mph - N/A   Clear
5:55 PM 24.6 °F 15.8 °F 8.2 °F 50% 30.05 in 10.0 mi West 8.1 mph - N/A   Clear
6:15 PM 24.4 °F 15.6 °F 9.5 °F 53% 30.05 in 10.0 mi West 8.1 mph - N/A   Clear
6:35 PM 23.7 °F 15.6 °F 9.9 °F 56% 30.05 in 10.0 mi West 6.9 mph - N/A   Clear
6:55 PM 23.4 °F 17.4 °F 9.3 °F 55% 30.04 in 10.0 mi WSW 4.6 mph - N/A   Clear
7:15 PM 21.7 °F 15.5 °F 10.8 °F 63% 30.02 in 10.0 mi SW 4.6 mph - N/A   Clear
7:35 PM 22.1 °F 15.9 °F 11.5 °F 64% 30.01 in 10.0 mi SSW 4.6 mph - N/A   Clear
7:55 PM 21.9 °F 15.7 °F 12.6 °F 67% 30.01 in 10.0 mi SSW 4.6 mph - N/A   Clear
8:15 PM 21.7 °F 15.5 °F 12.6 °F 68% 30.00 in 10.0 mi South 4.6 mph - N/A   Clear
8:35 PM 21.2 °F 14.9 °F 13.3 °F 72% 30.00 in 10.0 mi SSW 4.6 mph - N/A   Clear
8:55 PM 21.2 °F 13.6 °F 13.1 °F 71% 30.00 in 10.0 mi SSW 5.8 mph - N/A   Clear
9:15 PM 22.1 °F 14.7 °F 11.1 °F 63% 30.00 in 10.0 mi SSW 5.8 mph - N/A   Clear
9:35 PM 21.9 °F 14.5 °F 10.4 °F 61% 30.00 in 10.0 mi SSW 5.8 mph - N/A   Clear
9:55 PM 21.7 °F 14.3 °F 10.4 °F 62% 30.00 in 10.0 mi SW 5.8 mph - N/A   Clear
10:15 PM 21.2 °F 13.6 °F 10.4 °F 63% 30.00 in 10.0 mi SW 5.8 mph - N/A   Clear
10:35 PM 21.0 °F 14.6 °F 12.0 °F 68% 30.00 in 10.0 mi SW 4.6 mph - N/A   Clear
10:55 PM 21.7 °F 13.2 °F 11.5 °F 65% 30.00 in 10.0 mi SW 6.9 mph - N/A   Clear
11:15 PM 22.1 °F 12.8 °F 11.5 °F 64% 29.99 in 10.0 mi SSW 8.1 mph - N/A   Clear
11:35 PM 22.1 °F 13.7 °F 12.0 °F 65% 29.99 in 10.0 mi SW 6.9 mph - N/A   Clear
11:55 PM 21.9 °F 13.4 °F 12.2 °F 66% 29.98 in 10.0 mi SW 6.9 mph - N/A   Clear